Showing default

GEESAT 2-05, 58909

Orbit data source: Space-Track

GEESAT 2-05, 58909 is a payload satellite owned by GeeSpace (CN) in LEO that was launched on Fri, 02 Feb 2024 UTC via a CHANG ZHENG 2C launch vehicle from the Xichang Space Center, China (XSC). Payload-class satellites include a variety of spacecraft equipped with specific instruments for various scientific and technological missions. These include communications satellites like Starlink; space stations such as the ISS; scientific satellites like the Hubble; Earth observation satellites from companies like Planet Labs, Umbra, and HawkEye 360; GPS; miniature CubeSats for education and research; and military/defense satellites.

Loading next visibility...
Identifier
58909, 2024-023E
Orbit
LEO
Country
Flag of CNCN / PRC
Related business
Manufacturer
GWCG
Mission
Operational Commercial Navigation
Bus & Motor
GPS100, Unknown motor
Mass
130 kg wet, 130 kg dry
Launch date (UTC)
2024-02-02 (2 years ago)
Launch vehicle
CHANG ZHENG 2C
Launch site
Xichang Space Center, China (XSC)
Object type
Payload
Rocket body
Debris
Shape & HBR
Box + 2 Pan, 1.0 m
Radar Cross Section
0.833 m², Medium (>0.1 m² and < 1m²)

Expand to show TLE details & history
Last TLE update: 2 days ago

TLE from 2 days ago
0 GEESAT 2-05
1 58909U 24023E   26171.45861763  .00001194  00000-0  17189-3 0  9993
2 58909  50.0061 339.1947 0011007  77.2913 282.9255 14.83268439129406
Epoch: 2026-06-20T11:00Z
TLE epoch observation values (Epoch: 2026-06-20T11:00:24.563Z)
Latitude
-0.00001°
Longitude
-94.5806°
Altitude
617.856 km
Speed
7.552 km/s
True Right ascension
22h 36m 46s
True Declination
0° 00' 00"
Sunlit
Object was in daylight at epoch
Visualization orbit readout
Latitude
Unknown
Longitude
Unknown
Altitude
Unknown
Speed
Unknown
Apparent Right ascension
Unknown
Apparent Declination
Unknown
Sunlit
N/A
Visualization observer readout
Local Sidereal Time
21:39:50
Azimuth
Unknown
Elevation
Unknown
Doppler factor
Unknown
Orbital elements
Apogee altitude
627.486 km
Perigee altitude
612.081 km
Semi-major axis
6,997.92 km
Eccentricity
0.0011
Inclination
50.0061°
RAAN
339.1947°
Arg. of periapsis
77.2913°
True anomaly
282.80253°
Mean anomaly
282.9255°
Eccentric anomaly
282.86402°
Mean motion
3.70757 °/min
Orbital period
97.1 mins
BSTAR
0.00017189
Loading maneuver chart data...
Computing Atmospheric mass density...
Loading historical data...
Loading historical data...
Loading historical data...
Loading historical data...
Loading historical data...
Loading historical data...
Loading historical data...

Documentation

Showing up to 5 results
|